This is the latest recevied weather packets stored in our database for station/object KC9Q. If no packets are shown the sender has not sent any weather packets the latest 1 day(s).
| Time | Temp. | Humidity | Pressure | Rain* | Wind** | Luminosity | Snow |
|---|---|---|---|---|---|---|---|
| 1778036077 | 10.56° C | 99% | 1008.1 hPa | 1.27 mm | 5.36 m/s, 352° | 0 W/m² | - |
| 1778035774 | 10.56° C | 99% | 1007.8 hPa | 3.56 mm | 4.47 m/s, 355° | 0 W/m² | - |
| 1778035471 | 11.11° C | 99% | 1007.6 hPa | 3.05 mm | 4.47 m/s, 354° | 0 W/m² | - |
| 1778035166 | 11.67° C | 99% | 1007.8 hPa | 0 mm | 3.58 m/s, 357° | 0 W/m² | - |
| 1778034864 | 11.67° C | 99% | 1007.6 hPa | 0 mm | 5.36 m/s, 356° | 0 W/m² | - |
| 1778034560 | 11.67° C | 99% | 1007.5 hPa | 0.51 mm | 5.36 m/s, 348° | 0 W/m² | - |
| 1778034258 | 11.67° C | 99% | 1007.6 hPa | 0.51 mm | 4.02 m/s, 357° | 0 W/m² | - |
| 1778033956 | 11.67° C | 99% | 1007.3 hPa | 1.78 mm | 4.02 m/s, 350° | 0 W/m² | - |
| 1778033653 | 11.67° C | 99% | 1007 hPa | 1.78 mm | 4.02 m/s, 338° | 0 W/m² | - |
| 1778033349 | 11.67° C | 99% | 1007.3 hPa | 0 mm | 4.92 m/s, 358° | 0 W/m² | - |
| 1778033048 | 11.67° C | 99% | 1007.5 hPa | 0.51 mm | 5.36 m/s, 1° | 0 W/m² | - |
| 1778032744 | 11.67° C | 99% | 1007.4 hPa | 1.78 mm | 3.13 m/s, 341° | 0 W/m² | - |
| 1778032442 | 11.67° C | 99% | 1006.8 hPa | 1.27 mm | 6.26 m/s, 356° | 0 W/m² | - |
| 1778032139 | 11.67° C | 99% | 1006.8 hPa | 0 mm | 3.13 m/s, 339° | 0 W/m² | - |
| 1778031835 | 11.67° C | 99% | 1006.4 hPa | 0.51 mm | 4.92 m/s, 353° | 0 W/m² | - |
| 1778031532 | 11.67° C | 99% | 1006.3 hPa | 1.27 mm | 4.92 m/s, 1° | 0 W/m² | - |
| 1778031230 | 11.67° C | 99% | 1006.4 hPa | 1.27 mm | 3.58 m/s, 339° | 0 W/m² | - |
| 1778030926 | 12.22° C | 99% | 1006.5 hPa | 1.27 mm | 5.36 m/s, 355° | 0 W/m² | - |
| 1778030623 | 12.22° C | 99% | 1006.5 hPa | 1.78 mm | 2.68 m/s, 343° | 0 W/m² | - |
| 1778030320 | 12.22° C | 99% | 1006.1 hPa | 1.27 mm | 3.58 m/s, 356° | 0 W/m² | - |
| 1778030017 | 12.22° C | 99% | 1006.1 hPa | 1.27 mm | 4.47 m/s, 9° | 0 W/m² | - |
| 1778029714 | 12.22° C | 99% | 1006 hPa | 0 mm | 4.02 m/s, 4° | 0 W/m² | - |
| 1778029412 | 12.22° C | 99% | 1006 hPa | 0 mm | 4.92 m/s, 7° | 0 W/m² | - |
| 1778029109 | 12.22° C | 99% | 1005.9 hPa | 0.51 mm | 3.58 m/s, 2° | 0 W/m² | - |
| 1778028806 | 12.22° C | 99% | 1005.9 hPa | 0.51 mm | 3.58 m/s, 357° | 0 W/m² | - |
* Rain latest hour (hover to see other rain measurements)
** Current wind speed in m/s (hover to see current wind gust speed)